Weather in Vientiane

Laos     17°58′08″N   102°36′45″E
temp.,
°C
wind,
m/s
gust,
m/s
humid.,
%
clouds,
%
prec.,
mm/h
press.,
hPa
HPBL,
m
9 may, sun
sun901:00+27w116519 0.5 100825
04:00+25nw227737 0.6 100856
07:00+26nnw127134 0.8 1009130
10:00+34nw1243100 0.0 1009887
13:00+38sw233175 0.0 10062269
16:00+37ssw433130 0.0 10032692
19:00+32sw244710 0.0 100483
22:00+28nnw236226 0.2 100681
10 may, mon
mon1001:00+25nw247825 0.8 1005102
04:00+25nnw238277 0.5 100579
07:00+27nnw22735 0.9 1007142
10:00+35wnw24425 0.0 10081327
13:00+38sw352989 0.0 10053228
16:00+37ssw34348 0.0 10032176
19:00+31wsw385193 0.2 1004221
22:00+30nw11564 0.0 100634
11 may, tue
tue1101:00+27nnw12686 0.0 100560
04:00+26nnw22725 0.0 100453
07:00+28nnw116711 0.0 1007180
10:00+35wsw13423 0.0 10071435
13:00+37wsw343496 0.0 10042838
16:00+36s453832 0.0 10031483
19:00+31sw225459 0.2 100444
22:00+27wsw01714 0.4 100618
12 may, wed
wed1201:00+27nw22725 0.4 100547
04:00+26nw23771 0.0 100564
07:00+28nw12680 0.0 1006156
10:00+36wsw13411 0.0 10071480
13:00+38wsw2334100 0.0 10032755
16:00+36ssw233949 0.1 1001985
19:00+28wsw23671 1.2 100358
22:00+26nw23690 0.0 100567
13 may, thu
thu1301:00+27nw22710 0.0 100448
04:00+26nw22770 0.0 100454
07:00+28nnw11680 0.0 1006159
10:00+36sse12420 0.0 10061197
13:00+39s233258 0.0 10033096
16:00+37sw443693 0.0 10001663
19:00+29nne2362100 0.4 100384
22:00+28nw23725 0.0 100478